Weather History for KPMP - September, 2013

Change the Weather History Date:

Monday, September 2, 2013

  Actual Average Record
Temperature  
Mean Temperature 80 °F -  
Max Temperature 89 °F 91 °F 95 °F (1982)
Min Temperature 73 °F 75 °F 66 °F (1950)
Cooling Degree Days 16    
Growing Degree Days 30 (Base 50)    
Moisture  
Dew Point 74 °F    
Average Humidity 85    
Maximum Humidity 94    
Minimum Humidity 67    
Precipitation  
Precipitation 0.39 in - - ()
Sea Level Pressure  
Sea Level Pressure 30.01 in    
Wind  
Wind Speed 3 mph (West)    
Max Wind Speed 18 mph    
Max Gust Speed 32 mph    
Visibility 9 miles    
Events Rain , Thunderstorm    
Averages and records for this station are not official NWS values.
T = Trace of Precipitation, MM = Missing Value Source: NWS Daily Summary

Daily Weather History Graph

Daily Weather History Graph

Search for Another Location

Airport or City:

Trip Planner

Search our weather history database for the weather conditions in past years. The results will help you decide how hot, cold, wet, or windy it might be!

Date:

Astronomy

Sep. 02, 2013 Rise Set
Actual Time 7:00 AM EDT 7:38 PM EDT
Civil Twilight 6:37 AM EDT 8:02 PM EDT
Nautical Twilight 6:09 AM EDT 8:29 PM EDT
Astronomical Twilight 5:41 AM EDT 8:57 PM EDT
Moon 4:26 AM EDT (9/2) 5:44 PM EDT (9/2)
Length of Visible Light 13h 24m
Length of Day
12h 37m
Waning Crescent, 8% of the Moon is Illuminated
Sep 2
Waning Crescent
Sep 5
New
Sep 12
First Quarter
Sep 19
Full
Sep 26
Last Quarter

Hourly Weather History & Observations

Time (EDT) Temp. Heat Index Dew Point Humidity Pressure Visibility Wind Dir Wind Speed Gust Speed Precip Events Conditions
12:53 AM 78.1 °F - 75.9 °F 93% 30.00 in 10.0 mi Calm Calm - N/A   Unknown
1:53 AM 77.0 °F - 75.0 °F 94% 29.99 in 10.0 mi NW 3.5 mph - N/A   Unknown
2:53 AM 77.0 °F - 75.0 °F 94% 29.98 in 10.0 mi Calm Calm - N/A   Unknown
3:53 AM 77.0 °F - 73.9 °F 90% 29.97 in 10.0 mi Calm Calm - N/A   Unknown
4:53 AM 77.0 °F - 75.0 °F 94% 29.96 in 9.0 mi Calm Calm - N/A   Unknown
5:53 AM 77.0 °F - 75.0 °F 94% 29.97 in 9.0 mi Calm Calm - N/A   Unknown
6:53 AM 77.0 °F - 73.9 °F 90% 29.99 in 10.0 mi Calm Calm - N/A   Unknown
7:53 AM 78.1 °F - 75.0 °F 90% 30.01 in 10.0 mi Calm Calm - N/A   Mostly Cloudy
8:53 AM 82.9 °F 90.8 °F 75.9 °F 79% 30.02 in 10.0 mi Calm Calm - N/A   Scattered Clouds
9:53 AM 86.0 °F 96.0 °F 75.9 °F 72% 30.03 in 10.0 mi Calm Calm - N/A   Scattered Clouds
10:53 AM 84.9 °F 93.3 °F 75.0 °F 72% 30.04 in 10.0 mi SE 3.5 mph - N/A   Scattered Clouds
11:53 AM 88.0 °F 98.5 °F 75.9 °F 67% 30.04 in 10.0 mi SE 9.2 mph - N/A   Scattered Clouds
12:53 PM 88.0 °F 98.5 °F 75.9 °F 67% 30.02 in 10.0 mi ESE 9.2 mph - N/A   Scattered Clouds
1:53 PM 86.0 °F 96.0 °F 75.9 °F 72% 30.01 in 6.0 mi East 9.2 mph - 0.01 in Rain Light Rain
2:24 PM 84.2 °F 92.3 °F 75.2 °F 74% 30.01 in 10.0 mi SE 9.2 mph - 0.00 in Thunderstorm Thunderstorm
2:53 PM 80.1 °F 83.6 °F 71.1 °F 74% 30.04 in 7.0 mi SW 18.4 mph 24.2 mph 0.00 in Thunderstorm Thunderstorm
3:06 PM 73.4 °F - 69.8 °F 88% 30.03 in 1.8 mi West 12.7 mph 32.2 mph 0.06 in Rain , Thunderstorm Heavy Thunderstorms and Rain
3:22 PM 73.4 °F - 69.8 °F 88% 30.03 in 0.8 mi SW 5.8 mph - 0.13 in Rain , Thunderstorm Heavy Thunderstorms and Rain
3:30 PM 73.4 °F - 71.6 °F 94% 30.03 in 2.0 mi WSW 3.5 mph - 0.16 in Rain , Thunderstorm Thunderstorms and Rain
3:35 PM 73.4 °F - 71.6 °F 94% 30.03 in 4.0 mi West 4.6 mph - 0.18 in Rain , Thunderstorm Light Thunderstorms and Rain
3:53 PM 75.0 °F - 72.0 °F 90% 30.01 in 10.0 mi WNW 8.1 mph - 0.24 in Rain Light Rain
4:53 PM 77.0 °F - 73.9 °F 90% 30.01 in 10.0 mi NW 5.8 mph - 0.14 in Rain Light Rain
5:53 PM 79.0 °F - 73.9 °F 84% 29.99 in 10.0 mi NW 5.8 mph - N/A   Overcast
6:53 PM 79.0 °F - 73.0 °F 82% 29.98 in 10.0 mi North 4.6 mph - N/A   Unknown
7:53 PM 78.1 °F - 72.0 °F 81% 29.97 in 10.0 mi Calm Calm - N/A   Unknown
8:53 PM 78.1 °F - 73.0 °F 84% 29.99 in 10.0 mi Calm Calm - N/A   Unknown
9:53 PM 77.0 °F - 73.0 °F 88% 30.01 in 10.0 mi Calm Calm - N/A   Unknown
10:53 PM 75.0 °F - 72.0 °F 90% 30.01 in 10.0 mi NW 3.5 mph - N/A   Unknown
11:53 PM 75.0 °F - 73.0 °F 94% 30.01 in 10.0 mi Calm Calm - N/A   Unknown